Location: *
(10.2780°S, 113.2743°E)
Time: 08:58:32
(UTC+00:00)

Daily predictions for brighter satellites

Satellite Brightness Start Highest point End
(mag) Time Altitude Azimuth Time Altitude Azimuth Time Altitude Azimuth
CZ-4B R/B 4.2 12:04:58 10° S 12:09:01 44° WSW 12:13:09 10° NNW
CZ-4B R/B 3.4 12:11:08 10° SSE 12:16:16 50° E 12:16:16 50° E
Meteor 1-27 Rocket 3.9 12:11:59 10° S 12:17:46 53° E 12:18:13 52° E
Cosmos 1110 Rocket 4.3 12:13:24 10° SSW 12:18:32 64° WNW 12:20:34 36° N
SeaSat 1 3.3 12:18:28 27° NNW 12:20:46 46° WNW 12:25:29 10° SW
Cosmos 1655 Rocket 4.0 12:20:29 10° S 12:26:49 82° W 12:29:26 38° N
Cosmos 1943 Rocket 3.9 12:22:42 10° SSE 12:25:09 19° SE 12:25:09 19° SE
Cosmos 1140 Rocket 4.3 12:31:58 37° SSE 12:31:58 37° SSE 12:35:06 10° SSE
BREEZE-M DEB (TANK) 4.4 12:32:58 10° WNW 12:39:14 - SSE 12:35:37 30° SW
Cosmos 1302 Rocket 4.4 12:34:03 10° S 12:38:12 53° SSE 12:38:12 53° SSE
USA 267 3.1 12:41:05 68° NNE 12:42:03 86° NW 12:48:38 10° SW
Cosmos 2278 Rocket 2.3 12:41:31 10° SSW 12:46:41 74° SW 12:46:41 74° SW
ADEOS Rocket 3.4 12:59:51 10° S 13:04:46 55° SSW 13:04:46 55° SSW
Okean O Rocket 4.1 13:05:25 10° S 13:06:20 16° S 13:06:20 16° S
Milstar 3 Cent rocket 4.2 13:51:39 10° WSW 14:08:04 63° WNW 14:08:04 63° WNW
SL-16 R/B 4.4 18:38:01 10° SE 18:41:40 23° E 18:41:40 23° E
Cosmos 2322 Rocket 3.7 19:11:33 10° S 19:16:34 33° ESE 19:18:36 25° ENE
Cosmos 2297 Rocket 3.8 19:18:57 26° ENE 19:19:24 26° ENE 19:24:01 10° SE
Hubble Space Telescope 3.8 19:27:40 12° SSE 19:27:40 12° SSE 19:28:06 10° SSE
SL-16 R/B 3.9 19:33:16 10° SSW 19:35:13 22° SSW 19:35:13 22° SSW
CZ-2C R/B 2.9 19:34:42 10° SSE 19:39:52 72° ESE 19:39:52 72° ESE
USA 234 3.1 19:36:39 10° SSE 19:43:12 78° SW 19:43:34 76° W
Cosmos 1802 Rocket 4.4 19:38:52 10° S 19:43:37 50° SW 19:43:37 50° SW
SWIFT 3.7 19:53:18 35° SSE 19:53:18 35° SSE 19:56:34 10° E
Cosmos 2061 Rocket 3.9 19:50:59 10° S 19:57:12 89° W 19:59:23 44° N
CZ-2C R/B 4.3 20:02:11 19° SW 20:02:11 19° SW 20:03:39 10° SSW
Mugunghwa Rocket 4.1 19:59:43 52° W 20:01:38 76° NNW 20:09:24 10° ENE
Cosmos 1725 Rocket 4.0 19:56:27 10° SSW 20:02:39 58° W 20:02:42 58° W
Cosmos 489 Rocket 4.4 20:04:39 59° WNW 20:05:21 63° WSW 20:11:36 10° S
Aurora 2 Rocket 2.8 20:07:17 63° SW 20:07:36 64° SSW 20:11:48 10° ESE
SL-24 R/B - RUBIN 2 4.4 20:11:42 51° W 20:12:28 54° WSW 20:18:03 10° S
Intelsat 5-1 Rocket 3.8 20:12:34 12° SSE 20:12:39 12° SSE 20:13:41 10° SE
Cosmos 2227 Rocket 3.0 20:10:57 20° N 20:14:38 47° ENE 20:20:03 10° SSE
Orbus 21S 3.6 20:19:10 22° SSE 20:19:29 22° SSE 20:22:18 10° E
Skynet4D Del rocket 4.1 20:18:34 38° W 20:20:41 55° SSW 20:26:18 10° SE
ARIANE 5 R/B 3.7 20:15:48 10° NNE 20:20:44 44° ESE 20:25:41 10° S
CBERS-1 4.0 20:21:07 48° NW 20:21:55 54° WNW 20:26:54 10° SSW
TIMED 4.4 20:23:28 59° W 20:23:41 60° WSW 20:27:58 10° S
SL-16 R/B 3.3 20:20:53 10° SSW 20:26:10 30° WSW 20:26:45 30° W
Cosmos 1125 Rocket 3.5 20:26:41 40° NW 20:28:25 62° WSW 20:33:39 10° S
Cosmos 2228 2.9 20:30:11 26° N 20:32:30 84° E 20:36:43 10° S
Atlas 2A Centaur Rocket 2.7 20:33:42 28° N 20:34:30 32° NE 20:39:50 10° ESE
IRS-P3 Rocket 4.5 20:30:35 10° N 20:35:47 78° WNW 20:41:06 10° SSW
Meteor 2-1 Rocket 4.2 20:33:08 24° NNW 20:36:28 62° W 20:42:12 10° S
SEDSat Delta rocket 3.3 20:34:35 38° WNW 20:36:32 82° SSW 20:42:10 10° ESE
Cosmos 2058 4.4 20:34:16 10° SSE 20:38:04 37° E 20:41:51 10° NNE
Cosmos 2360 Rocket 2.5 20:38:10 10° SW 20:43:27 41° WNW 20:48:44 10° N
Cosmos 1544 Rocket 4.3 20:43:27 29° W 20:43:42 30° W 20:47:30 10° SSW
Cosmos 1484 Rocket 3.4 20:45:19 31° W 20:45:19 31° W 20:48:18 10° SW
Fermi 4.2 20:44:28 35° WNW 20:45:19 40° NNW 20:49:10 10° NE
Atlas Centaur 2 1.7 20:45:42 32° NNW 20:45:42 32° NNW 20:48:52 10° NNE
Cosmos 2150 Rocket 4.1 20:44:47 18° NNW 20:48:50 66° WSW 20:54:16 10° S
Cosmos 2219 Rocket 2.2 20:44:20 10° SSW 20:49:56 87° ESE 20:55:33 10° NNE
USA 281 3.7 20:47:10 10° N 20:52:57 34° WNW 20:58:46 10° SW
Lacrosse 5 rocket 1.4 20:50:07 10° SW 20:53:48 45° WNW 20:57:38 10° NNE
Cosmos 1939 Rocket 2.6 20:51:27 10° N 20:55:16 88° W 20:59:05 10° SSW
USA 229 DEB 3.4 20:51:17 10° SW 20:57:09 52° WNW 21:02:55 10° N
USA 229 3.4 20:51:20 10° SW 20:57:13 53° WNW 21:02:59 10° N
IRS-1C 4.1 20:52:27 10° N 20:57:40 58° WNW 21:02:55 10° SSW
Cosmos 921 Rocket 3.5 20:54:26 10° SW 20:58:11 33° W 21:01:58 10° NNW
Cosmos 2322 Rocket 3.5 20:56:39 10° WSW 21:00:02 17° W 21:00:02 17° W
Cosmos 2219 3.3 20:55:00 10° NNW 21:00:42 81° ENE 21:06:29 10° SSE
Cosmos 2297 Rocket 3.4 21:00:48 17° WNW 21:03:11 23° WSW 21:07:32 10° SSW
Cosmos 1607 4.0 20:59:09 11° NNW 21:05:08 67° WSW 21:11:20 10° SSE
Ariane H10+ 4.1 20:48:00 13° W 21:05:25 50° NNW 21:12:39 10° ENE
H-2A R/B 2.1 21:04:05 10° N 21:08:58 55° W 21:14:01 10° SSW
Cosmos 2333 Rocket 2.9 21:04:13 10° SW 21:09:05 30° WNW 21:13:57 10° NNW
ARIANE 5 R/B 3.8 20:49:03 15° WNW 21:09:11 58° N 21:14:47 10° ENE
COSMOS 2428 3.4 21:03:47 10° S 21:09:22 59° ESE 21:14:54 10° NNE
Cosmos 1626 Rocket 3.5 21:06:33 10° S 21:10:59 72° W 21:15:21 10° N
Meteor 2-21 Rocket 4.4 21:09:35 10° N 21:15:45 78° W 21:21:56 10° S
H-2A R/B 3.8 21:13:58 10° NNW 21:16:32 20° W 21:19:08 10° SW
Cosmos 1072 Rocket 4.5 21:12:53 10° SSW 21:18:58 65° W 21:25:06 10° N
ERS-2 3.8 21:16:21 10° NE 21:19:00 31° ESE 21:21:41 10° SSE
Cosmos 2082 4.1 21:14:29 10° N 21:20:09 70° ENE 21:25:51 10° SSE
ARIANE 5 DEB (SYLDA) 4.3 21:21:18 10° WNW 21:24:43 39° NNE 21:31:10 10° E
H-2A R/B 1.3 21:24:03 10° SW 21:26:47 44° SSE 21:28:41 10° E
Okean 1-7 Rocket 3.7 21:25:52 10° SSW 21:30:18 59° W 21:34:39 10° N
Cosmos 1464 Rocket 4.1 21:24:25 10° SSW 21:30:23 55° W 21:36:20 10° NNW
Cosmos 1238 Rocket 3.4 21:26:56 10° NNW 21:30:33 40° W 21:34:51 10° SSW
YAOGAN 11 4.4 21:26:54 10° S 21:31:00 46° WSW 21:35:05 10° NNW
Cosmos 1606 Rocket 4.1 21:29:28 10° NNW 21:33:27 37° W 21:37:27 10° SSW
SWIFT 2.2 21:30:02 10° WSW 21:34:05 70° NNW 21:38:09 10° ENE
Cosmos 494 Rocket 3.9 21:30:02 10° SSW 21:35:10 72° WNW 21:40:15 10° N
